User: anonymous   Login
Location: Wilsall
(45.9940°N, 110.6590°W)
Time: 00:07:49
(UTC-06:00)
Language:

GP-B - Orbit

View from above orbital plane
View from above orbital plane
View from above satellite
View from above satellite

Ground track
Ground track

The orbit data is extracted from the following two-line orbital elements,

1 28230U 04014A   17081.86932579 +.00000137 +00000-0 +16545-4 0  9996
2 28230 089.8472 123.6892 0003335 095.9095 264.2508 14.78519673153543
Epoch (UTC): 22 March 2017 20:51:49
Eccentricity: 0.0003335
inclination: 89.8472°
perigee height: 631 km
apogee height: 636 km
right ascension of ascending node: 123.6892°
argument of perigee: 95.9095°
revolutions per day: 14.78519673
mean anomaly at epoch: 264.2508°
orbit number at epoch: 15354

The dashed part of the orbit path shows where the satellite is in the earth's shadow,  

DLR